Hourly Weather Roundup
Issued by NWS Central Illinois

Home | Current Version | Previous Version | Text Only | Print | Product List | Glossary On
Versions: 1 2 3 4 5 6 7 8 9 10 11 12 13 14 15 16 17 18 19 20 21 22 23 24 25 26 27 28 29 30 31 32 33 34 35 36 37 38 39 40 41 42 43 44 45 46 47 48 49 50
000
NZUS43 KILX 120610
HWRILX

AREA WEATHER ROUNDUP
NATIONAL WEATHER SERVICE, LINCOLN IL
1200 AM CST FRI FEB 12 2016


CITY           SKY/WX    TMP DP  RH WIND       PRES   REMARKS
BLOOMINGTON    CLOUDY    21  13  71 S7        30.25F WCI  12
6HR MIN TEMP:  21; 6HR MAX TEMP:  22;

CHAMPAIGN      CLOUDY    21  12  68 S5        30.25F WCI  15
6HR MIN TEMP:  18; 6HR MAX TEMP:  22;

DANVILLE       MOCLDY    19  11  73 CALM      30.24F
6HR MIN TEMP:  19; 6HR MAX TEMP:  19;

DECATUR        CLOUDY    23  11  60 S3        30.25F
6HR MIN TEMP:  23; 6HR MAX TEMP:  24;

EFFINGHAM      CLOUDY    25  15  65 CALM      30.29R
FLORA          CLOUDY    27  14  57 NE3       30.27S
6HR MIN TEMP:  27; 6HR MAX TEMP:  28;

GALESBURG      FLURRIES  22  15  75 CALM      30.24F
JACKSONVILLE   FLURRIES  26  18  74 CALM      30.25F
6HR MIN TEMP:  25; 6HR MAX TEMP:  27;

LACON          CLOUDY    22  10  61 CALM      30.25F
6HR MIN TEMP:  20; 6HR MAX TEMP:  22;

LAWRENCEVILLE  CLOUDY    25  11  55 E6        30.27F WCI  18
6HR MIN TEMP:  24; 6HR MAX TEMP:  26;

LITCHFIELD     CLOUDY    24  15  68 E5        30.25F WCI  18
$$


CITY           SKY/WX    TMP DP  RH WIND       PRES   REMARKS
LINCOLN        MOCLDY    25  15  65 CALM      30.26F
6HR MIN TEMP:  25; 6HR MAX TEMP:  25;

MACOMB         CLOUDY    23  18  80 SW3       30.28S
MATTOON        CLOUDY    21  10  62 CALM      30.25F
6HR MIN TEMP:  21; 6HR MAX TEMP:  22;

MT CARMEL AP   CLOUDY    27  14  59 NE5       30.26F WCI  21
OLNEY-NOBLE AP CLOUDY    27  14  59 NE3       30.28R
PARIS          CLOUDY    21  15  75 CALM      30.27F
6HR MIN TEMP:  21; 6HR MAX TEMP:  23;

PEORIA         MOCLDY    23  10  57 SW6       30.26F WCI  16
6HR MIN TEMP:  22; 6HR MAX TEMP:  24;

PONTIAC        MOCLDY    21  17  83 CALM      30.26F
RANTOUL        MOCLDY    23  11  59 CALM      30.25F
6HR MIN TEMP:  23; 6HR MAX TEMP:  23;

ROBINSON       MOCLDY    23  14  66 CALM      30.29F
6HR MIN TEMP:  23; 6HR MAX TEMP:  24;

SPRINGFIELD    CLOUDY    26  14  60 S6        30.25F WCI  19
6HR MIN TEMP:  26; 6HR MAX TEMP:  26;

TAYLORVILLE    CLOUDY    25  14  63 CALM      30.25F
$$

...REGIONAL REPORTS...


CITY           SKY/WX    TMP DP  RH WIND       PRES   REMARKS
CHICAGO O`HARE CLOUDY    18   7  62 W6        30.24F WCI  10
KANKAKEE       MOCLDY    18  13  80 SW5       30.27F WCI  11
MOLINE         CLOUDY    22  12  65 SW3       30.25F
MOUNT STERLING LGT SNOW  21  16  81 SE3       30.25S
MOUNT VERNON   CLOUDY    27  12  54 NE3       30.26F
PITTSFIELD     CLOUDY    23  17  79 N3        30.26S
QUINCY         CLOUDY    20  16  84 CALM      30.25R
ROCKFORD       CLOUDY    19   7  59 SW3       30.25F
$$


CITY           SKY/WX    TMP DP  RH WIND       PRES   REMARKS
BURLINGTON     LGT SNOW  21  19  92 W5        30.25S FOG     WCI  15
CEDAR RAPIDS   CLEAR     17  13  84 SW5       30.23F WCI  10
DES MOINES     CLOUDY    19  15  84 SE5       30.23F WCI  12
KIRKSVILLE     LGT SNOW  21  15  78 NE6       30.24R WCI  13
OTTUMWA        CLOUDY    19  17  92 CALM      30.24F
ST LOUIS       CLOUDY    29  12  49 E6        30.25F WCI  23
$$


CITY           SKY/WX    TMP DP  RH WIND       PRES   REMARKS
TERRE HAUTE    CLOUDY    23  14  68 CALM      30.27F
EVANSVILLE     CLOUDY    28  14  55 NE6       30.25F WCI  22
INDIANAPOLIS   CLOUDY    19   9  65 S3        30.24F
LAFAYETTE      CLOUDY    18  11  74 CALM      30.27F
MADISON        CLOUDY    16   1  51 W6        30.20S WCI   7
MILWAUKEE      CLOUDY    17   0  47 W9        30.20F WCI   6
$$





USA.gov is the U.S. government's official web portal to all federal, state and local government web resources and services.